Location: Boston
(42.3580°N, 71.0600°W)
Time: 20:06:56
(UTC-04:00)

Vanguard 1 - Visible Passes

Search period start: 16 October 2017 00:00
Search period end: 26 October 2017 00:00
Orbit: 650 x 3834 km, 34.3° (Epoch: 15 October)

Date Brightness Start Highest point End Pass type
(mag) Time Alt. Az. Time Alt. Az. Time Alt. Az.
16 Oct 12.7 02:24:01 57° SSE 02:24:01 57° SSE 02:45:27 10° E visible
16 Oct 12.8 04:36:43 35° WSW 04:48:40 69° S 05:11:23 10° ESE visible
17 Oct 13.6 00:31:04 23° E 00:31:04 23° E 00:38:54 10° E visible
17 Oct 12.5 02:43:46 63° SSE 02:44:05 63° SSE 03:07:05 10° E visible
17 Oct 12.9 04:56:28 30° WSW 05:10:10 67° S 05:32:37 10° ESE visible
18 Oct 13.4 00:50:49 29° E 00:50:49 29° E 01:00:57 10° E visible
18 Oct 12.5 03:03:31 64° SSW 03:05:23 66° S 03:28:40 10° E visible
18 Oct 13.0 05:16:14 24° W 05:31:38 64° SSW 05:53:42 10° ESE visible
19 Oct 13.2 01:10:35 36° ESE 01:10:35 36° ESE 01:22:50 10° E visible
19 Oct 12.4 03:23:18 62° SW 03:26:47 68° S 03:50:12 10° E visible
19 Oct 13.1 05:36:01 19° W 05:53:00 60° SSW 06:14:37 10° SE visible
20 Oct 13.0 01:30:23 42° ESE 01:30:23 42° ESE 01:44:36 10° E visible
20 Oct 12.5 03:43:05 56° SW 03:48:14 68° S 04:11:38 10° ESE visible
20 Oct 13.2 05:55:48 15° W 06:14:15 54° SSW 06:35:18 10° SE visible
20 Oct 14.0 23:37:29 10° E 23:37:29 10° E 23:37:40 10° E visible
21 Oct 12.8 01:50:12 49° ESE 01:50:12 49° ESE 02:06:19 10° E visible
21 Oct 12.5 04:02:54 50° WSW 04:09:41 66° S 04:32:58 10° ESE visible
21 Oct 13.3 06:15:37 11° W 06:35:22 48° SSW 06:55:42 10° SE visible
21 Oct 13.8 23:57:19 14° E 23:57:19 14° E 23:59:44 10° E visible
22 Oct 12.7 02:10:02 56° SE 02:10:02 56° SE 02:28:00 10° E visible
22 Oct 12.6 04:22:45 43° WSW 04:31:07 63° SSW 04:54:08 10° ESE visible
22 Oct 13.4 06:37:01 10° W 06:56:21 41° SW 07:15:47 10° SSE visible
23 Oct 13.7 00:17:12 19° E 00:17:12 19° E 00:21:38 10° E visible
23 Oct 12.5 02:29:55 62° SE 02:29:55 62° SE 02:49:36 10° E visible
23 Oct 12.7 04:42:38 36° WSW 04:52:29 59° SSW 05:15:07 10° SE visible
24 Oct 13.6 00:37:06 23° E 00:37:06 23° E 00:43:26 10° E visible
24 Oct 12.4 02:49:49 65° SSE 02:49:49 65° SSE 03:11:07 10° ESE visible
24 Oct 12.9 05:02:33 30° W 05:13:46 53° SSW 05:35:50 10° SE visible
25 Oct 13.4 00:57:03 28° E 00:57:03 28° E 01:05:11 10° E visible
25 Oct 12.4 03:09:46 65° S 03:09:46 65° S 03:32:32 10° ESE visible
25 Oct 13.0 05:22:30 25° W 05:34:57 47° SSW 05:56:16 10° SE visible
